Time,TemperatureF,DewpointF,PressureIn,WindDirection,WindDirectionDegrees,WindSpeedMPH,WindSpeedGustMPH,Humidity,HourlyPrecipIn,Conditions,Clouds,dailyrainin,SoftwareType,DateUTC
2013-07-28 00:06:00,48.7,47.0,29.84,NNE,32,0.0,-999.0,92,-99.99,,,0.00,weatherlink.com 1.10,2013-07-28 04:06:00,
2013-07-28 00:21:00,48.5,47.0,29.85,NNE,32,0.0,-999.0,93,-99.99,,,0.00,weatherlink.com 1.10,2013-07-28 04:21:00,
2013-07-28 00:36:00,48.9,47.0,29.86,NNE,32,0.0,-999.0,94,-99.99,,,0.00,weatherlink.com 1.10,2013-07-28 04:36:00,
2013-07-28 01:06:00,48.5,46.0,29.84,NNE,32,0.0,-999.0,92,-99.99,,,0.00,weatherlink.com 1.10,2013-07-28 05:06:00,
2013-07-28 01:21:00,47.9,46.0,29.84,NNE,32,0.0,-999.0,92,-99.99,,,0.00,weatherlink.com 1.10,2013-07-28 05:21:00,
2013-07-28 01:36:00,47.6,45.0,29.84,NNE,32,0.0,-999.0,92,-99.99,,,0.00,weatherlink.com 1.10,2013-07-28 05:36:00,
2013-07-28 01:51:00,47.5,46.0,29.84,NNE,32,0.0,-999.0,93,-99.99,,,0.00,weatherlink.com 1.10,2013-07-28 05:51:00,
2013-07-28 02:06:00,47.8,46.0,29.83,NNE,32,0.0,-999.0,94,-99.99,,,0.00,weatherlink.com 1.10,2013-07-28 06:06:00,
2013-07-28 02:21:00,47.8,46.0,29.83,NNE,32,0.0,-999.0,94,-99.99,,,0.00,weatherlink.com 1.10,2013-07-28 06:21:00,
2013-07-28 03:06:00,47.5,46.0,29.83,NNE,32,0.0,-999.0,93,-99.99,,,0.00,weatherlink.com 1.10,2013-07-28 07:06:00,
2013-07-28 03:36:00,47.4,46.0,29.82,NNE,32,0.0,-999.0,94,-99.99,,,0.00,weatherlink.com 1.10,2013-07-28 07:36:00,
2013-07-28 03:51:00,47.6,46.0,29.81,NNE,32,0.0,-999.0,94,-99.99,,,0.00,weatherlink.com 1.10,2013-07-28 07:51:00,
2013-07-28 04:06:00,47.9,46.0,29.81,NNE,32,0.0,-999.0,94,-99.99,,,0.00,weatherlink.com 1.10,2013-07-28 08:06:00,
2013-07-28 04:21:00,48.1,47.0,29.80,NNE,32,0.0,-999.0,94,-99.99,,,0.00,weatherlink.com 1.10,2013-07-28 08:21:00,
2013-07-28 04:36:00,48.3,46.0,29.80,NNE,32,0.0,-999.0,92,-99.99,,,0.00,weatherlink.com 1.10,2013-07-28 08:36:00,
2013-07-28 04:51:00,48.8,46.0,29.79,NNE,32,0.0,-999.0,91,-99.99,,,0.00,weatherlink.com 1.10,2013-07-28 08:51:00,
2013-07-28 05:06:00,49.2,47.0,29.79,NNE,32,0.0,-999.0,90,-99.99,,,0.00,weatherlink.com 1.10,2013-07-28 09:06:00,
2013-07-28 05:51:00,49.8,47.0,29.78,NNE,32,0.0,-999.0,89,-99.99,,,0.00,weatherlink.com 1.10,2013-07-28 09:51:00,
2013-07-28 06:21:00,50.1,47.0,29.78,NNE,32,1.0,-999.0,89,-99.99,,,0.00,weatherlink.com 1.10,2013-07-28 10:21:00,
2013-07-28 06:36:00,50.2,47.0,29.78,NNE,32,1.0,-999.0,90,-99.99,,,0.00,weatherlink.com 1.10,2013-07-28 10:36:00,
2013-07-28 06:51:00,50.2,48.0,29.78,NNE,32,0.0,-999.0,91,-99.99,,,0.00,weatherlink.com 1.10,2013-07-28 10:51:00,
2013-07-28 07:06:00,50.2,48.0,29.77,NNE,32,0.0,-999.0,92,-99.99,,,0.01,weatherlink.com 1.10,2013-07-28 11:06:00,
2013-07-28 07:21:00,50.1,48.0,29.77,NNE,32,0.0,-999.0,93,-99.99,,,0.04,weatherlink.com 1.10,2013-07-28 11:21:00,
2013-07-28 07:36:00,50.0,48.0,29.77,NNE,32,0.0,-999.0,94,-99.99,,,0.06,weatherlink.com 1.10,2013-07-28 11:36:00,
2013-07-28 07:51:00,50.1,49.0,29.78,NNW,329,0.0,-999.0,94,-99.99,,,0.08,weatherlink.com 1.10,2013-07-28 11:51:00,
2013-07-28 08:06:00,50.2,49.0,29.78,NNW,329,0.0,-999.0,94,-99.99,,,0.12,weatherlink.com 1.10,2013-07-28 12:06:00,
2013-07-28 08:21:00,50.3,49.0,29.77,SW,229,0.0,-999.0,95,-99.99,,,0.16,weatherlink.com 1.10,2013-07-28 12:21:00,
2013-07-28 08:51:00,50.5,49.0,29.78,SW,229,1.0,-999.0,95,-99.99,,,0.20,weatherlink.com 1.10,2013-07-28 12:51:00,
2013-07-28 09:06:00,50.6,49.0,29.78,SW,234,1.0,-999.0,95,-99.99,,,0.22,weatherlink.com 1.10,2013-07-28 13:06:00,
2013-07-28 09:21:00,50.8,50.0,29.78,WSW,241,0.0,-999.0,95,-99.99,,,0.24,weatherlink.com 1.10,2013-07-28 13:21:00,
2013-07-28 09:36:00,50.9,50.0,29.78,WSW,241,1.0,-999.0,95,-99.99,,,0.25,weatherlink.com 1.10,2013-07-28 13:36:00,
2013-07-28 09:51:00,51.1,50.0,29.77,WSW,241,0.0,-999.0,95,-99.99,,,0.25,weatherlink.com 1.10,2013-07-28 13:51:00,
2013-07-28 10:21:00,51.5,50.0,29.77,WSW,241,0.0,-999.0,96,-99.99,,,0.27,weatherlink.com 1.10,2013-07-28 14:21:00,
2013-07-28 10:51:00,52.0,51.0,29.76,South,186,0.0,-999.0,96,-99.99,,,0.28,weatherlink.com 1.10,2013-07-28 14:51:00,
2013-07-28 11:06:00,52.1,51.0,29.76,SSW,196,1.0,-999.0,96,-99.99,,,0.29,weatherlink.com 1.10,2013-07-28 15:06:00,
2013-07-28 11:36:00,52.3,51.0,29.77,SSW,196,0.0,-999.0,96,-99.99,,,0.29,weatherlink.com 1.10,2013-07-28 15:36:00,
2013-07-28 11:51:00,52.2,51.0,29.77,South,187,0.0,-999.0,95,-99.99,,,0.29,weatherlink.com 1.10,2013-07-28 15:51:00,
2013-07-28 12:21:00,52.6,51.0,29.77,SSW,205,0.0,-999.0,95,-99.99,,,0.30,weatherlink.com 1.10,2013-07-28 16:21:00,
2013-07-28 12:36:00,52.3,51.0,29.77,SSW,206,1.0,-999.0,95,-99.99,,,0.30,weatherlink.com 1.10,2013-07-28 16:36:00,
2013-07-28 12:51:00,52.5,51.0,29.77,East,101,0.0,-999.0,95,-99.99,,,0.31,weatherlink.com 1.10,2013-07-28 16:51:00,
2013-07-28 13:06:00,52.6,51.0,29.78,SSE,153,2.0,-999.0,95,-99.99,,,0.31,weatherlink.com 1.10,2013-07-28 17:06:00,
2013-07-28 13:21:00,52.5,51.0,29.78,ENE,75,0.0,-999.0,95,-99.99,,,0.31,weatherlink.com 1.10,2013-07-28 17:21:00,
2013-07-28 13:51:00,52.4,51.0,29.78,SW,229,0.0,-999.0,95,-99.99,,,0.31,weatherlink.com 1.10,2013-07-28 17:51:00,
2013-07-28 14:06:00,52.4,51.0,29.78,NNW,332,1.0,-999.0,95,-99.99,,,0.31,weatherlink.com 1.10,2013-07-28 18:06:00,
2013-07-28 14:21:00,52.7,51.0,29.79,NE,54,1.0,-999.0,95,-99.99,,,0.31,weatherlink.com 1.10,2013-07-28 18:21:00,
2013-07-28 14:36:00,52.9,52.0,29.79,NE,52,0.0,-999.0,95,-99.99,,,0.31,weatherlink.com 1.10,2013-07-28 18:36:00,
2013-07-28 14:51:00,52.7,51.0,29.79,NE,34,0.0,-999.0,94,-99.99,,,0.31,weatherlink.com 1.10,2013-07-28 18:51:00,
2013-07-28 15:06:00,52.6,51.0,29.80,SW,222,0.0,-999.0,95,-99.99,,,0.31,weatherlink.com 1.10,2013-07-28 19:06:00,
2013-07-28 15:21:00,52.5,51.0,29.81,SSW,198,0.0,-999.0,94,-99.99,,,0.31,weatherlink.com 1.10,2013-07-28 19:21:00,
2013-07-28 15:36:00,52.5,51.0,29.81,NE,42,0.0,-999.0,95,-99.99,,,0.31,weatherlink.com 1.10,2013-07-28 19:36:00,
2013-07-28 15:51:00,52.3,51.0,29.81,NE,40,1.0,-999.0,94,-99.99,,,0.31,weatherlink.com 1.10,2013-07-28 19:51:00,
2013-07-28 16:06:00,52.1,51.0,29.82,NE,50,0.0,-999.0,94,-99.99,,,0.31,weatherlink.com 1.10,2013-07-28 20:06:00,
2013-07-28 16:21:00,52.1,51.0,29.82,NNE,14,1.0,-999.0,95,-99.99,,,0.31,weatherlink.com 1.10,2013-07-28 20:21:00,
2013-07-28 16:36:00,51.9,51.0,29.82,SSW,206,0.0,-999.0,95,-99.99,,,0.31,weatherlink.com 1.10,2013-07-28 20:36:00,
2013-07-28 16:51:00,51.6,50.0,29.82,South,187,1.0,-999.0,95,-99.99,,,0.31,weatherlink.com 1.10,2013-07-28 20:51:00,
2013-07-28 17:06:00,51.8,51.0,29.83,SSW,212,0.0,-999.0,95,-99.99,,,0.32,weatherlink.com 1.10,2013-07-28 21:06:00,
2013-07-28 17:21:00,51.7,50.0,29.83,SW,221,2.0,-999.0,95,-99.99,,,0.32,weatherlink.com 1.10,2013-07-28 21:21:00,
2013-07-28 17:36:00,51.8,51.0,29.84,North,355,0.0,-999.0,95,-99.99,,,0.32,weatherlink.com 1.10,2013-07-28 21:36:00,
2013-07-28 17:51:00,52.0,51.0,29.84,NE,53,1.0,-999.0,95,-99.99,,,0.32,weatherlink.com 1.10,2013-07-28 21:51:00,
2013-07-28 18:06:00,51.6,50.0,29.85,SSW,211,0.0,-999.0,94,-99.99,,,0.32,weatherlink.com 1.10,2013-07-28 22:06:00,
2013-07-28 18:21:00,51.1,50.0,29.86,NE,47,2.0,-999.0,95,-99.99,,,0.32,weatherlink.com 1.10,2013-07-28 22:21:00,
2013-07-28 18:36:00,51.0,50.0,29.87,NE,40,0.0,-999.0,95,-99.99,,,0.32,weatherlink.com 1.10,2013-07-28 22:36:00,
2013-07-28 18:51:00,50.7,49.0,29.88,South,188,0.0,-999.0,95,-99.99,,,0.32,weatherlink.com 1.10,2013-07-28 22:51:00,
2013-07-28 19:06:00,50.5,49.0,29.88,South,190,0.0,-999.0,95,-99.99,,,0.32,weatherlink.com 1.10,2013-07-28 23:06:00,
2013-07-28 19:21:00,50.4,49.0,29.88,SSW,207,0.0,-999.0,95,-99.99,,,0.32,weatherlink.com 1.10,2013-07-28 23:21:00,
2013-07-28 19:36:00,50.2,49.0,29.89,SSW,205,0.0,-999.0,95,-99.99,,,0.32,weatherlink.com 1.10,2013-07-28 23:36:00,
2013-07-28 19:51:00,50.3,49.0,29.89,NE,43,1.0,-999.0,95,-99.99,,,0.33,weatherlink.com 1.10,2013-07-28 23:51:00,
2013-07-28 20:21:00,50.0,49.0,29.91,NE,53,0.0,-999.0,95,-99.99,,,0.33,weatherlink.com 1.10,2013-07-29 00:21:00,
2013-07-28 20:36:00,49.7,49.0,29.91,NNE,19,1.0,-999.0,96,-99.99,,,0.33,weatherlink.com 1.10,2013-07-29 00:36:00,
2013-07-28 20:51:00,49.4,48.0,29.91,NE,49,1.0,-999.0,95,-99.99,,,0.33,weatherlink.com 1.10,2013-07-29 00:51:00,
2013-07-28 21:06:00,49.3,48.0,29.92,ENE,65,0.0,-999.0,95,-99.99,,,0.33,weatherlink.com 1.10,2013-07-29 01:06:00,
2013-07-28 21:21:00,49.2,48.0,29.93,ENE,67,0.0,-999.0,96,-99.99,,,0.33,weatherlink.com 1.10,2013-07-29 01:21:00,
2013-07-28 21:36:00,49.0,48.0,29.93,NW,321,0.0,-999.0,96,-99.99,,,0.33,weatherlink.com 1.10,2013-07-29 01:36:00,
2013-07-28 22:06:00,48.9,48.0,29.95,ENE,71,0.0,-999.0,96,-99.99,,,0.33,weatherlink.com 1.10,2013-07-29 02:06:00,
2013-07-28 22:36:00,48.9,48.0,29.96,ENE,61,0.0,-999.0,96,-99.99,,,0.33,weatherlink.com 1.10,2013-07-29 02:36:00,
2013-07-28 22:51:00,49.0,48.0,29.97,ENE,61,0.0,-999.0,96,-99.99,,,0.33,weatherlink.com 1.10,2013-07-29 02:51:00,
2013-07-28 23:06:00,49.1,48.0,29.98,SSW,203,2.0,-999.0,96,-99.99,,,0.33,weatherlink.com 1.10,2013-07-29 03:06:00,
2013-07-28 23:21:00,49.1,48.0,29.98,NE,50,0.0,-999.0,96,-99.99,,,0.33,weatherlink.com 1.10,2013-07-29 03:21:00,